Starlink 5739

operational
NORAD ID: 55571 Int'l Des: 2023-020 Owner: SPXS Country: US Constellation: starlink
LEOCIRCULAR

About Starlink 5739

Description loading...

Live Position

Loading 3D Globe...

Upcoming Passes

Altitude History

Altitude vs Time

uPlot chart will show altitude changes over time

Two-Line Element Set

1 55571U 23020C 26034.77319437 .00000233 00000-0 32298-4 0 9992
2 55571 43.0021 189.2538 0001065 241.6414 118.4321 15.02538963163816
Epoch: Feb 3, 2026 • Age: 29 hours

Current Status

Altitude 558.1 km
Velocity 7.58 km/s
Sub-Earth Point 6.45°N, 139.96°W
Launch Date Feb 12, 2023
Age 2.9 years
Type internet

Technical Details

Classification Payload
Mass 305.00 kg
Dry Mass 290.00 kg
Total Mass 305.00 kg
Length 0.20 m
Diameter 2.80 m
Span 9.00 m
Shape Box + pan
Manufacturer SPXS
Bus Type Starlink
Phase Status In Orbit
Owner/State SPXS/US

Large Constellations

Loading constellations...